Location: ????????
(55.5667°N, 37.5833°E)
Time: 15:29:35
(UTC+00:00)

NOSS 2-1 (C) - Pass Details

Date: 14 April 2026
Orbit: 374 x 1679 km, 63.3° (Epoch: 17 May)

Event Time Altitude Azimuth Distance (km) Brightness Sun altitude
Rises 17:13:03 0° 307° (NW) 2,247 8.6 -6.0°
Reaches altitude 10° 17:15:04 10° 317° (NW) 1,415 6.8 -6.3°
Maximum altitude 17:17:54 36° 27° (NNE) 683 3.8 -6.6°
Drops below altitude 10° 17:21:10 10° 96° (E) 1,640 5.2 -7.0°
Enters shadow 17:21:37 - 98° (E) 1,826 5.4 -7.1°
